Regional Weather Roundup
Issued by NWS

Home | Current Version | Previous Version | Graphics & Text | Print | Product List | Glossary On
Versions: 1 2 3 4 5 6 7 8 9 10 11 12 13 14 15 16 17 18 19 20 21 22 23 24 25 26 27 28 29 30 31 32 33 34 35 36 37 38 39 40 41 42 43 44 45 46 47 48 49 50
000
ASUS43 KBIS 060610
RWRND

NORTH DAKOTA REGIONAL WEATHER ROUNDUP
NATIONAL WEATHER SERVICE BISMARCK ND
100 AM CDT MON JUL 06 2015

NOTE: "FAIR" INDICATES FEW OR NO CLOUDS BELOW 12,000 FEET WITH NO
SIGNIFICANT WEATHER AND/OR OBSTRUCTIONS TO VISIBILITY.


NDZ001>003-009>011-017-060700-
NORTHWEST NORTH DAKOTA

CITY           SKY/WX    TMP DP  RH WIND       PRES   REMARKS
WILLISTON      MOCLDY    61  51  70 N6        30.09R
6HR MIN TEMP:  60; 6HR MAX TEMP:  74;

MINOT          PTCLDY    59  53  80 W12       30.03R
MINOT AFB      PTCLDY    58  58  99 NW8       30.03R
$$

NDZ018>021-031>035-040>046-060700-
SOUTHWEST NORTH DAKOTA

CITY           SKY/WX    TMP DP  RH WIND       PRES   REMARKS
BISMARCK       CLOUDY    66  57  72 N10       29.99S HAZE
6HR MIN TEMP:  66; 6HR MAX TEMP:  72; 6HR PCP: TRACE;

DICKINSON      CLOUDY    56  53  90 NW6       30.06R
GARRISON         N/A     57  54  89 NW9       30.03R
6HR MIN TEMP:  57; 6HR MAX TEMP:  71;

HETTINGER ARPT CLOUDY    60  55  83 N8        30.07R HAZE
$$

NDZ004>008-012>016-024-026-027-054-060700-
NORTHEAST NORTH DAKOTA

CITY           SKY/WX    TMP DP  RH WIND       PRES   REMARKS
GRAND FORKS    CLOUDY    61  59  93 NW6       29.90R FOG
GRND FRKS AFB  MOCLDY    62  59  88 N7        29.91S FOG
DEVILS LAKE    MOCLDY    64  52  63 N15       29.95S
$$

NDZ022-023-025-028>030-036>039-047>053-060700-
SOUTHEAST NORTH DAKOTA

CITY           SKY/WX    TMP DP  RH WIND       PRES   REMARKS
FARGO          CLOUDY    67  57  70 N9        29.88S HAZE
6HR MIN TEMP:  67; 6HR MAX TEMP:  77;

JAMESTOWN      CLOUDY    64  58  80 N9        29.92F HAZE
$$




USA.gov is the U.S. government's official web portal to all federal, state and local government web resources and services.